Main page
METAR-TAF:

METAR-TAF

Airports :

Williamson County Regional Airport

Marion, Illinois, United States

latitude: 37-45-01N, longitude: 089-00-04W, elevation: 472 ft

Current weather observation

The report was made 1 hour and 5 minutes ago, at 20:45 UTC
Wind 6 mph from the East
Temperature 79°F
Humidity 54%
Pressure 30.10 in. Hg
Visibility: 10 miles
Broken clouds at a height of 5500 ft

METAR: KMWA 192045Z 08005KT 10SM BKN055 26/16 A3010

Time: 16:50 (21:50 UTC)


TAF: missing

Weather observations and forecasts of more than 4000 airports (METAR and TAF reports).

The available stations are represented by yellow and red dots on the map.

Hover mouse over dot to see the name of the station.

Then click to see weather observations and forecasts.

To change the map : click on the green buttons with a black cross to zoom in, on the green button with a dash to zoom out, or on the green arrows for adjacent maps.


METAR-TAF: